Weather Roundup
Issued by NWS

Home | Current Version | Previous Version | Text Only | Print | Product List | Glossary On
Versions: 1 2 3 4 5 6 7 8 9 10 11 12 13 14 15 16 17 18 19 20 21 22 23 24 25 26 27 28 29 30 31 32 33 34 35 36 37 38 39 40 41 42 43 44 45 46 47 48 49 50
757
NZUS93 KARX 230710
HRRWXR

CURRENT HOURLY OBSERVATIONS ACROSS
MUCH OF THE UPPER MISSISSIPPI VALLEY
NATIONAL WEATHER SERVICE LA CROSSE WI
200 AM CDT FRI JUN 23 2017


...SOUTHEAST MINNESOTA...


CITY           SKY/WX    TMP DP  RH WIND       PRES   REMARKS
ROCHESTER      CLOUDY    62  62 100 NW9       29.76F FOG
ROCHESTER/MAYO FAIR      63  63 100 W8        29.75F
WINONA         CLOUDY    66  64  94 CALM      29.73S
AUSTIN         CLOUDY    63  61  94 NW3       29.76S FOG
ALBERT LEA     CLEAR     63  59  88 CALM      29.77S
DODGE CENTER   CLEAR     61  57  88 W6        29.76F
PRESTON        CLOUDY    63  61  93 N5        29.75S FOG
OWATONNA       CLEAR     59  57  94 SW3       29.78R
FARIBAULT      PTCLDY    55  55 100 CALM      29.77S
$$

...ELSEWHERE IN MINNESOTA...


CITY           SKY/WX    TMP DP  RH WIND       PRES   REMARKS
MINNEAPOLIS    CLEAR     61  57  87 CALM      29.74F
INTNL FALLS    PTCLDY    54  44  69 W6        29.60S
DULUTH         PTCLDY    53  52  96 W8        29.65F
RED WING       FOG       63  61  94 CALM      29.73S VSB<1/4
REDWOOD FALLS  CLEAR     61  53  75 W10       29.77F
MANKATO        CLEAR     59  56  89 SW5       29.79R
WORTHINGTON    CLEAR     56  49  77 W10       29.84S
FAIRMONT       CLEAR     58  55  90 W3        29.81R
$$

...SOUTHWEST WISCONSIN...


CITY           SKY/WX    TMP DP  RH WIND       PRES   REMARKS
LA CROSSE      CLOUDY    68  68 100 NW5       29.73R
PRAIRIE DU CHI LGT RAIN  66  64  91 E8        29.70R
BOSCOBEL       TSTM      67  64  90 W7        29.73R
LONE ROCK      CLOUDY    66  63  90 NW8       29.68F
PLATTEVILLE    CLOUDY    66  66 100 N6        29.67F
FORT MC COY    FOG       64  64 100 NW3       29.73S VSB 1
CAMP DOUGLAS   LGT RAIN  64  64 100 NW5       29.71S FOG
MAUSTON-NEW LI LGT RAIN  66  65  99 NW3       29.69F
VIROQUA        CLOUDY    64  64 100 N5        29.73F
WIS DELLS      RAIN      64  63  94 CALM      29.69S
$$

...ELSEWHERE IN WISCONSIN...


CITY           SKY/WX    TMP DP  RH WIND       PRES   REMARKS
MILWAUKEE      CLOUDY    67  65  93 N15G28    29.68R
MADISON        TSTM      65  64  97 VRB5      29.67S FOG
GREEN BAY      CLOUDY    66  66 100 W8        29.68R
EAU CLAIRE     CLEAR     60  60 100 SW3       29.71S FOG
BLACK RVR FLS  CLOUDY    64  64 100 CALM      29.73S
MEDFORD        CLOUDY    59  59  97 W3        29.72S
WAUSAU         CLOUDY    62  61  96 W5        29.70S
WIS RAPIDS     CLOUDY    66  65  96 N6        29.73F
MARSHFIELD     CLOUDY    63  60  90 NW3       29.71F
RICE LAKE      CLEAR     60  57  90 W3        29.73S
$$

...NORTHEAST IOWA...


CITY           SKY/WX    TMP DP  RH WIND       PRES   REMARKS
WATERLOO       CLOUDY    68  65  90 N12       29.71S
DUBUQUE        TSTM      66  65  96 SW12      29.71R FOG
DECORAH        CLOUDY    66  64  94 N8        29.72F
MASON CITY     CLOUDY    64  62  93 NW6       29.79S
CHARLES CITY   CLOUDY    66  66 100 NW8       29.76R
OELWEIN        CLOUDY    68  68 100 N10       29.72R
$$

...ELSEWHERE IN IOWA...


CITY           SKY/WX    TMP DP  RH WIND       PRES   REMARKS
DES MOINES     CLOUDY    70  67  90 N12       29.74R
IOWA CITY      LGT RAIN  78  72  81 SW8       29.66R
FORT DODGE     CLOUDY    64  57  77 NW5       29.82S
MARSHALLTOWN   CLOUDY    70  68  93 N13       29.72R
CEDAR RAPIDS   TSTM      69  69 100 N13       29.66S FOG
$$

...NORTHERN ILLINOIS...


CITY           SKY/WX    TMP DP  RH WIND       PRES   REMARKS
CHICAGO-OHARE  CLOUDY    76  70  82 SW9       29.66F
CHICAGO-MIDWAY CLOUDY    76  71  85 S13       29.65F
MOLINE         CLEAR     77  71  82 S12       29.62F
ROCKFORD       CLOUDY    77  72  84 SW10      29.66F
PEORIA         MOCLDY    75  74  96 S10       29.68F
$$

NOTE: "FAIR" INDICATES FEW OR NO CLOUDS BELOW 12,000 FEET WITH NO
SIGNIFICANT WEATHER AND/OR OBSTRUCTIONS TO VISIBILITY. WIND
SPEEDS ARE IN MILES-PER-HOUR.




USA.gov is the U.S. government's official web portal to all federal, state and local government web resources and services.